Prestwick, United Kingdom

12:18 PM BST on September 28, 2016 (GMT +0100)
Prestwick

Weather History for EGPK - August, 2013

Change the Weather History Date:

Monday, August 12, 2013

  Actual Average Record
Temperature  
Mean Temperature 58 °F -  
Max Temperature 62 °F 65 °F 75 °F (1997)
Min Temperature 51 °F 53 °F 41 °F (1999)
Degree Days  
Heating Degree Days 8    
Growing Degree Days 8 (Base 50)    
Moisture  
Dew Point 51 °F    
Average Humidity 77    
Maximum Humidity 88    
Minimum Humidity 63    
Precipitation  
Precipitation 0.00 in - - ()
Sea Level Pressure  
Sea Level Pressure 29.96 in    
Wind  
Wind Speed 14 mph ()    
Max Wind Speed 22 mph    
Max Gust Speed -    
Visibility 6.2 miles    
Events Rain    
Averages and records for this station are not official NWS values.
T = Trace of Precipitation, MM = Missing Value Source: Averaged Metar Reports

Daily Weather History Graph

Daily Weather History Graph

Search for Another Location

Airport or City:

Trip Planner

Search our weather history database for the weather conditions in past years. The results will help you decide how hot, cold, wet, or windy it might be!

Date:

Astronomy

Aug. 12, 2013 Rise Set
Actual Time 5:45 AM BST 8:59 PM BST
Civil Twilight 5:01 AM BST 9:43 PM BST
Nautical Twilight 4:02 AM BST 10:41 PM BST
Astronomical Twilight 2:33 AM BST 12:07 AM BST
Moon 12:32 PM BST (8/12) 10:29 PM BST (8/12)
Length of Visible Light 16h 41m
Length of Day
15h 14m
Waxing Crescent, 29% of the Moon is Illuminated
Aug 12
Waxing Crescent
Aug 14
First Quarter
Aug 21
Full
Aug 28
Last Quarter
Sep 5
New

Hourly Weather History & Observations

Time (BST) Temp. Dew Point Humidity Pressure Visibility Wind Dir Wind Speed Gust Speed Precip Events Conditions
12:20 AM 55.4 °F 51.8 °F 88% 29.92 in 6.2 mi WSW 11.5 mph - N/A   Scattered Clouds
12:50 AM 55.4 °F 51.8 °F 88% 29.89 in 6.2 mi WSW 16.1 mph - N/A   Scattered Clouds
1:50 AM 55.4 °F 51.8 °F 88% 29.89 in 6.2 mi WSW 15.0 mph - N/A   Scattered Clouds
2:50 AM 55.4 °F 50.0 °F 82% 29.89 in 6.2 mi WSW 12.7 mph - N/A   Scattered Clouds
3:50 AM 55.4 °F 51.8 °F 88% 29.89 in 6.2 mi SW 12.7 mph - N/A   Scattered Clouds
4:50 AM 55.4 °F 51.8 °F 88% 29.86 in 6.2 mi WSW 15.0 mph - N/A   Scattered Clouds
6:20 AM 55.4 °F 51.8 °F 88% 29.89 in 6.2 mi WSW 11.5 mph - N/A   Scattered Clouds
6:50 AM 55.4 °F 51.8 °F 88% 29.89 in 6.2 mi West 12.7 mph - N/A   Mostly Cloudy
7:20 AM 57.2 °F 51.8 °F 82% 29.89 in 6.2 mi West 13.8 mph - N/A   Mostly Cloudy
7:50 AM 57.2 °F 53.6 °F 88% 29.89 in 6.2 mi West 11.5 mph - N/A   Scattered Clouds
8:20 AM 57.2 °F 51.8 °F 82% 29.92 in 6.2 mi WNW 15.0 mph - N/A   Scattered Clouds
8:50 AM 57.2 °F 51.8 °F 82% 29.92 in 6.2 mi WNW 17.3 mph - N/A   Scattered Clouds
9:20 AM 57.2 °F 51.8 °F 82% 29.92 in 6.2 mi WNW 17.3 mph - N/A   Scattered Clouds
9:50 AM 59.0 °F 51.8 °F 77% 29.92 in 6.2 mi WNW 18.4 mph - N/A   Scattered Clouds
10:20 AM 59.0 °F 51.8 °F 77% 29.92 in 6.2 mi WNW 19.6 mph - N/A   Scattered Clouds
10:50 AM 59.0 °F 51.8 °F 77% 29.95 in 6.2 mi WNW 18.4 mph - N/A   Scattered Clouds
11:20 AM 62.6 °F 51.8 °F 68% 29.95 in 6.2 mi WNW 21.9 mph - N/A   Scattered Clouds
11:50 AM 62.6 °F 51.8 °F 68% 29.95 in 6.2 mi West 20.7 mph - N/A   Scattered Clouds
12:20 PM 60.8 °F 50.0 °F 68% 29.95 in 6.2 mi West 18.4 mph - N/A   Scattered Clouds
12:50 PM 62.6 °F 51.8 °F 68% 29.95 in 6.2 mi WNW 18.4 mph - N/A   Scattered Clouds
1:20 PM 62.6 °F 51.8 °F 68% 29.95 in 6.2 mi WNW 17.3 mph - N/A   Scattered Clouds
1:50 PM 62.6 °F 51.8 °F 68% 29.98 in 6.2 mi WNW 17.3 mph - N/A   Scattered Clouds
2:20 PM 62.6 °F 50.0 °F 63% 29.98 in 6.2 mi WNW 17.3 mph - N/A   Scattered Clouds
2:50 PM 60.8 °F 50.0 °F 68% 29.98 in 6.2 mi WNW 18.4 mph - N/A   Scattered Clouds
3:20 PM 60.8 °F 50.0 °F 68% 29.98 in 6.2 mi WNW 19.6 mph - N/A   Scattered Clouds
3:50 PM 60.8 °F 50.0 °F 68% 29.98 in 6.2 mi West 18.4 mph - N/A   Scattered Clouds
4:20 PM 60.8 °F 50.0 °F 68% 29.98 in 6.2 mi WNW 20.7 mph - N/A   Scattered Clouds
4:50 PM 62.6 °F 50.0 °F 63% 29.98 in 6.2 mi WNW 19.6 mph - N/A   Scattered Clouds
5:20 PM 59.0 °F 48.2 °F 67% 29.98 in 6.2 mi WNW 19.6 mph - N/A Rain Light Rain Showers
5:50 PM 59.0 °F 50.0 °F 72% 30.01 in 6.2 mi West 18.4 mph - N/A   Scattered Clouds
6:20 PM 59.0 °F 50.0 °F 72% 30.01 in 6.2 mi WNW 20.7 mph - N/A   Scattered Clouds
6:50 PM 59.0 °F 48.2 °F 67% 30.01 in 6.2 mi WNW 20.7 mph - N/A   Scattered Clouds
7:20 PM 59.0 °F 48.2 °F 67% 30.01 in 6.2 mi WNW 20.7 mph - N/A   Scattered Clouds
7:50 PM 57.2 °F 50.0 °F 77% 30.01 in 6.2 mi WNW 13.8 mph - N/A   Scattered Clouds
8:20 PM 57.2 °F 50.0 °F 77% 30.04 in 6.2 mi WNW 15.0 mph - N/A   Scattered Clouds
8:50 PM 57.2 °F 50.0 °F 77% 30.04 in 6.2 mi WNW 15.0 mph - N/A Rain Light Rain
9:20 PM 55.4 °F 50.0 °F 82% 30.04 in 6.2 mi WNW 17.3 mph - N/A Rain Light Rain
9:50 PM 55.4 °F 50.0 °F 82% 30.04 in 6.2 mi NW 13.8 mph - N/A   Scattered Clouds
10:20 PM 55.4 °F 50.0 °F 82% 30.06 in 6.2 mi WNW 11.5 mph - N/A   Scattered Clouds
10:50 PM 55.4 °F 50.0 °F 82% 30.06 in 6.2 mi NW 12.7 mph - N/A   Scattered Clouds
11:20 PM 53.6 °F 48.2 °F 82% 30.06 in 6.2 mi NW 9.2 mph - N/A   Partly Cloudy
11:50 PM 51.8 °F 46.4 °F 82% 30.06 in 6.2 mi NW 8.1 mph - N/A   Partly Cloudy